SCP
0 0 0 0 0 0 0 0 0 0 0 0 0 0 -0 0 0 0 0 0 0 -0 0 0 0 0 0 0 0 0 0 0 0 0 0 0 0 0 0 0 0 0 0 0 0
0 0 0 0 0 0 0 0 0 0 0 0 0 0 -0 0 0 0 0 -0 -0 -0 0 0 0 0 0 0 0 0 0 0 0 0 0 0 0 0 0 0 0 0 0 0 0
0 0 0 0 0 0 0 0 0 0 0 0 0 -0 0 0 0 0 -0 -0 -0 -0 0 0 0 0 0 0 0 0 0 0 0 0 0 -0 0 0 0 0 0 0 0 0 0
0 0 0 0 0 0 0 0 0 0 0 0 0 -0 0 0 0 0 -0 -0 -0 0 0 0 0 0 0 0 0 0 0 0 0 0 0 0 -0 0 -0 -0 0 0 0 0 0
0 0 0 0 0 0 0 0 0 0 0 0 0 0 0 0 0 0 0 0 0 0 0 0 0 0 0 0 0 0 0 0 0 0 0 0 0 -0 -0 0 0 0 0 0 0
0 0 0 0 0 0 0 0 0 0 -0 0 0 0 0 0 0 0 0 0 0 0 0 0 0 0 0 0 0 0 0 0 0 0 0 0 0 -0 -0 -0 0 0 0 0 0
0 0 0 0 0 0 0 0 0 -0 -0 -0 -0 0 0 0 0 0 0 0 0 0 0 0 0 0 0 0 0 0 0 0 0 0 0 0 0 -0 -0 0 0 0 0 0 0
0 0 0 0 0 0 0 0 0 0 -0 0 0 0 0 0 0 0 0 0 0 0 0 0 0 0 0 0 0 0 0 0 0 0 0 0 -0 0 0 -0 -0 0 0 0 0
0 0 0 0 0 0 0 0 0 0 0 0 0 0 -0 -0 0 0 0 0 -0 0 0 0 0 0 0 0 0 0 0 0 0 0 0 0 0 0 0 -0 -0 -0 -0 0 0
0 0 0 0 0 0 0 0 0 0 0 0 0 0 0 -0 0 -0 -0 0 0 -0 -0 0 0 0 0 0 0 -0 0 0 0 0 0 0 0 0 -0 -0 -0 -0 -0 0 0
0 0 0 0 0 0 0 0 0 0 0 0 0 0 0 0 -0 -0 -0 0 0 -0 0 0 0 0 0 -0 0 0 0 0 0 0 0 0 0 0 0 -0 -0 -0 -0 0 0
0 0 0 0 0 0 0 0 0 0 0 0 0 0 0 0 -0 -0 0 0 0 0 -0 0 0 0 0 0 0 0 0 0 0 0 0 0 -0 0 0 0 -0 -0 -0 0 0
0 0 0 0 0 0 0 0 0 0 0 0 0 0 0 0 0 -0 0 0 0 0 0 0 0 0 0 0 0 0 0 0 0 0 0 0 0 -0 0 0 0 0 0 0 0
0 0 0 0 0 0 0 0 0 0 0 0 0 0 0 0 0 0 0 0 0 0 0 0 0 0 0 0 0 0 0 0 0 0 0 0 0 -0 0 0 -0 0 0 0 0
0 0 0 0 0 0 0 0 0 0 0 0 0 0 0 0 0 0 0 0 0 0 0 0 0 0 0 0 0 0 0 0 0 0 0 0 0 0 -0 0 -0 0 0 -0 0
0 0 0 0 0 0 0 0 0 0 0 0 0 0 0 0 0 0 0 0 0 0 0 0 0 0 0 0 0 0 0 0 0 0 0 0 0 0 0 0 -0 -0 -0 -0 0
0 0 0 0 0 0 0 0 0 0 0 0 0 0 0 0 0 0 0 0 0 0 0 0 0 0 0 0 0 0 0 0 0 0 0 0 0 0 0 0 -0 0 -0 0 0
0 0 0 0 0 0 0 0 0 0 0 0 0 0 0 0 0 0 0 0 0 0 0 0 0 0 0 0 0 0 0 0 0 0 0 0 0 0 0 0 0 0 0 -0 0
0 0 0 0 0 0 0 0 0 0 0 0 0 0 0 0 0 0 0 0 0 0 0 0 0 0 0 0 0 0 0 0 0 0 0 0 0 0 0 0 0 0 -0 0 0
0 0 0 0 0 0 0 0 0 0 0 0 0 0 0 0 0 0 0 0 0 0 0 0 0 0 0 0 0 0 0 0 0 0 0 0 0 0 0 0 0 0 0 -0 -0
0 0 0 0 0 0 0 0 0 0 0 0 0 0 0 0 0 0 0 0 0 0 0 0 0 0 0 0 0 0 0 0 0 0 0 0 0 0 0 0 0 0 0 0 0
0 0 0 0 0 0 0 0 0 0 0 0 0 0 0 0 0 0 0 0 0 0 0 0 0 0 0 0 0 0 0 0 0 0 0 0 0 0 0 0 0 0 0 0 -0
0 0 0 0 0 0 0 0 0 0 0 0 0 0 0 0 0 0 0 0 0 0 0 0 0 0 0 0 0 0 0 0 0 0 0 0 0 0 0 0 0 0 0 0 0
0 0 0 0 0 0 0 0 0 0 0 0 0 0 0 0 0 0 0 0 0 0 0 0 0 0 0 0 0 0 0 0 0 0 0 0 0 0 0 0 0 0 0 0 0
0 0 0 0 0 0 0 0 0 0 0 0 0 0 0 0 0 0 0 0 0 0 0 0 0 0 0 0 0 0 0 0 0 0 0 0 0 0 0 0 0 0 0 0 0
0 0 0 0 0 0 0 0 0 0 0 0 0 0 0 0 0 0 0 0 0 0 0 0 0 0 0 0 0 0 0 0 0 0 0 0 0 0 0 0 0 0 0 0 0
0 0 0 0 0 0 0 0 0 0 0 0 0 0 0 0 0 0 0 0 0 0 0 0 0 0 0 0 0 0 0 0 0 0 0 0 0 0 0 0 0 0 0 0 0
Wind_Speed_500mb
9 9 10 12 14 18 21 23 24 25 26 27 26 19 12 9 28 19 28 31 33 31 28 17 10 13 15 18 16 7 8 5 5 6 10 29 18 20 34 19 35 14 28 56 53
9 8 10 11 13 17 19 23 24 24 25 26 24 19 13 7 12 41 33 23 24 27 23 22 18 14 14 11 13 13 8 3 3 3 4 26 17 30 22 47 17 60 52 51 49
9 8 9 11 13 15 19 22 24 23 24 23 21 16 11 9 9 31 31 26 25 28 24 26 15 16 16 15 16 8 7 1 4 8 19 7 16 23 23 7 36 49 64 59 51
9 7 7 10 13 16 18 20 23 24 23 20 15 15 18 6 6 28 28 29 29 32 19 26 13 10 12 10 11 10 7 8 7 15 23 11 12 30 6 11 33 48 56 56 47
10 8 7 10 13 15 16 19 22 23 21 16 10 10 9 19 21 24 26 28 27 24 33 19 37 13 10 9 9 10 8 9 13 17 17 25 32 12 16 23 55 67 67 62 52
12 9 8 11 12 13 15 17 19 18 18 19 19 15 9 17 26 25 23 24 31 34 36 37 23 24 20 11 10 6 9 8 19 26 11 29 23 5 4 54 75 70 66 63 58
12 9 8 10 9 11 13 16 14 11 15 21 16 23 41 24 26 21 20 29 33 32 36 42 41 20 9 6 13 7 5 9 20 33 15 49 9 7 29 65 67 67 67 61 57
13 11 10 8 7 8 10 11 10 9 4 3 11 14 16 22 21 11 17 24 24 28 26 24 18 29 17 6 11 12 10 12 9 30 21 19 12 18 54 52 57 69 63 64 61
15 12 11 8 4 4 6 7 6 12 8 7 7 10 9 12 21 17 20 17 14 18 25 18 20 23 20 8 8 17 4 7 17 11 13 11 13 34 48 50 55 57 65 70 73
16 13 11 8 5 2 6 16 15 10 6 8 13 13 11 13 32 18 9 17 15 11 11 20 19 10 10 15 3 5 7 6 8 13 18 8 13 30 43 39 52 57 62 72 70
18 15 12 9 6 4 7 8 3 8 24 17 18 19 9 5 26 20 10 13 14 23 10 18 21 14 8 7 3 1 3 8 7 7 19 8 14 22 45 36 47 57 59 69 78
20 17 14 10 5 5 7 8 7 19 23 19 23 25 19 10 5 26 15 9 20 10 4 13 11 3 4 5 3 1 4 9 11 10 8 11 28 11 21 28 47 56 56 65 73
22 19 16 12 8 4 8 9 21 21 11 5 12 13 9 16 14 28 14 11 13 13 14 14 2 2 7 9 9 3 5 5 11 18 1 13 11 8 23 28 50 62 65 65 68
22 20 17 14 9 11 7 17 25 9 9 8 3 6 7 4 8 25 12 4 11 9 8 12 4 5 6 9 5 3 6 9 13 11 4 9 8 9 34 43 53 63 69 71 73
24 22 19 19 7 16 10 20 18 5 6 3 3 4 13 8 3 19 23 11 8 8 7 3 3 7 7 3 4 9 1 9 4 1 6 10 4 13 34 45 47 66 68 70 71
26 24 21 20 13 13 15 23 16 12 11 3 4 4 8 12 7 7 9 15 9 10 11 6 1 2 2 5 5 8 3 5 4 2 5 5 6 10 27 37 42 62 69 68 68
28 26 23 22 16 18 23 24 10 8 9 9 5 5 9 6 9 11 8 10 5 10 7 11 3 1 2 3 2 11 7 5 9 8 6 4 5 9 32 35 37 50 71 71 72
32 28 26 23 20 25 30 9 8 4 12 3 3 10 8 4 5 8 4 5 4 9 8 9 9 3 7 3 2 5 5 7 8 3 9 9 4 2 20 41 42 47 65 71 72
35 31 28 26 25 30 17 6 15 13 13 17 6 9 4 2 6 7 4 7 5 5 11 9 6 4 1 2 0 2 8 2 2 3 4 7 8 12 30 30 55 60 68 78 79
44 32 29 30 29 28 6 10 8 7 11 5 8 3 10 6 4 6 2 5 6 3 4 8 7 3 0 4 7 8 4 4 3 6 7 6 2 9 35 40 37 54 65 74 77
42 22 26 33 29 18 7 13 7 13 11 8 7 9 8 12 11 5 7 5 4 4 6 7 6 6 5 4 5 4 4 3 1 2 2 6 5 2 15 22 28 46 62 67 67
47 8 37 42 11 0 6 12 12 12 10 2 6 8 10 10 8 7 11 10 10 14 9 5 8 4 4 2 2 1 7 4 5 6 5 1 7 6 12 27 34 46 55 57 53
42 14 41 53 8 5 2 1 7 10 10 9 4 2 4 11 9 7 7 2 16 7 11 9 2 5 11 3 4 3 4 4 1 3 6 4 7 13 40 43 50 47 51 51 53
31 8 16 36 10 14 10 6 8 9 10 8 8 9 9 7 6 9 5 3 8 5 11 7 3 7 10 8 6 5 5 6 6 5 4 7 12 15 25 26 47 49 44 44 50
28 12 24 14 21 11 8 17 13 12 7 15 3 7 13 9 6 7 6 4 6 14 7 6 8 0 2 2 2 6 9 7 11 8 8 5 6 6 10 16 31 33 35 42 47
36 20 19 16 37 27 17 18 22 10 16 11 7 15 11 14 14 19 15 8 9 6 5 4 5 6 8 4 5 7 13 12 10 6 8 8 7 6 2 24 34 33 33 37 39
52 48 42 31 20 24 15 16 21 28 10 6 23 12 10 12 16 30 18 22 23 13 6 7 9 6 7 8 6 11 15 16 7 5 8 7 4 5 3 13 22 24 26 28 31
Wind_Direction_500mb
317 332 343 5 1 355 1 3 7 4 0 1 1 3 12 38 39 47 37 14 6 12 14 13 28 75 82 68 56 58 63 71 37 40 303 343 360 346 339 324 337 27 357 333 341
292 314 333 353 356 358 355 360 3 2 358 360 4 7 22 77 62 45 36 29 22 16 23 35 51 65 66 46 36 57 80 106 114 62 1 317 343 333 343 332 354 336 327 342 341
279 300 324 337 345 353 356 358 358 357 355 357 4 19 30 59 79 16 21 30 30 23 23 28 57 73 67 48 26 35 103 341 124 17 339 301 332 331 331 352 5 340 340 348 345
264 283 311 324 336 350 355 355 353 354 353 355 359 47 58 49 78 4 18 28 33 29 21 35 43 58 61 51 29 92 58 34 358 357 356 339 319 326 287 303 339 336 331 330 333
252 268 298 320 329 342 350 355 350 357 360 10 34 76 55 63 34 28 30 34 43 42 44 49 49 53 69 58 49 51 352 354 10 4 32 354 318 263 298 353 337 331 322 321 318
244 260 296 312 324 335 347 352 350 14 37 58 68 75 59 73 37 39 42 42 53 52 53 58 59 71 88 56 60 347 313 324 30 11 46 1 320 18 352 337 331 331 324 318 312
239 254 277 295 318 336 345 349 2 42 107 81 75 79 66 62 40 41 60 58 51 56 69 71 61 73 55 59 21 351 33 8 27 358 27 344 27 45 343 339 341 342 334 324 315
233 249 263 283 314 334 346 357 22 53 145 174 64 66 81 60 39 55 57 61 60 58 67 68 61 57 59 69 23 33 50 4 350 4 5 14 288 302 343 341 338 341 338 332 325
229 243 253 264 290 336 4 21 72 75 74 90 84 96 86 49 35 43 52 59 70 57 58 74 68 61 23 57 39 21 345 13 319 46 357 47 292 304 345 345 345 339 333 332 324
226 234 242 254 259 255 135 81 90 86 96 92 84 90 74 38 31 36 70 51 57 104 81 51 60 74 18 29 72 318 343 330 257 313 357 318 291 304 334 344 350 343 340 332 330
220 226 231 245 252 227 192 208 194 62 68 65 89 89 59 4 32 37 82 77 57 56 63 34 63 49 335 339 339 210 259 286 252 295 347 328 303 303 324 332 350 346 342 334 330
217 221 221 228 240 229 192 206 166 138 90 71 87 85 59 28 317 36 62 88 59 65 354 44 72 278 241 59 64 10 331 343 294 285 333 331 306 288 323 333 354 345 346 336 329
218 217 218 217 221 231 204 178 148 134 90 60 67 69 59 44 36 10 34 86 86 53 32 98 162 323 101 58 35 39 67 25 317 311 336 319 297 325 351 358 351 351 347 344 339
218 216 214 210 208 202 176 151 155 140 75 291 2 52 30 70 32 26 27 68 47 123 89 82 11 51 80 85 64 27 138 328 311 352 333 30 294 308 358 352 1 350 351 344 344
216 215 209 202 192 186 177 162 163 101 10 298 39 82 61 81 14 10 25 52 89 109 97 234 68 55 68 112 129 218 350 292 284 30 54 347 49 282 356 354 351 348 348 344 350
215 211 207 207 201 181 163 157 147 47 260 274 298 82 69 34 22 346 46 66 106 84 36 92 90 145 266 277 196 293 68 88 75 341 36 299 108 302 7 347 345 340 341 346 353
211 209 203 199 198 172 155 149 50 136 349 273 173 101 86 25 3 22 36 28 112 86 7 353 6 288 309 19 38 14 58 356 1 11 231 340 71 244 2 351 342 337 337 347 355
206 203 201 199 181 171 159 57 104 219 213 224 122 88 109 73 350 358 70 45 25 75 99 129 320 31 353 73 112 1 55 128 210 324 295 340 355 273 17 346 350 352 349 351 357
198 197 198 191 179 173 176 82 203 192 163 156 58 88 348 113 159 54 23 164 202 163 125 118 334 321 139 182 329 10 62 35 259 20 298 287 309 312 342 353 356 0 357 353 1
190 189 194 188 180 177 93 238 182 154 125 132 137 147 154 185 111 73 247 250 156 198 159 169 78 271 24 122 24 75 158 96 27 28 323 294 205 305 338 343 348 354 352 354 3
185 173 190 181 173 175 175 220 204 177 155 169 157 133 160 152 158 189 203 262 173 139 94 136 89 261 72 21 168 37 83 89 106 224 221 307 263 36 317 334 338 343 357 2 10
176 151 172 172 143 170 174 189 162 150 191 195 116 108 141 147 135 169 195 215 173 155 141 170 132 145 124 161 280 227 157 142 146 241 246 184 275 83 11 356 354 350 8 13 27
163 124 171 177 161 231 262 288 184 136 185 171 134 129 127 142 117 152 143 176 156 152 163 173 348 52 356 71 43 187 170 169 158 114 239 171 261 15 9 5 4 5 17 17 29
155 142 163 202 215 148 152 172 165 194 163 153 125 112 117 102 39 153 127 166 154 110 106 104 101 179 183 156 134 206 221 198 163 194 210 235 310 352 352 353 353 8 22 26 35
163 188 173 182 200 173 171 157 142 169 209 174 88 201 150 120 105 143 126 125 71 140 76 103 146 335 309 99 169 234 235 211 196 213 185 206 282 329 332 337 356 7 20 32 37
169 149 151 159 162 171 182 195 169 151 154 204 179 172 151 150 175 183 142 175 193 157 113 54 147 81 336 349 19 271 246 228 235 210 255 251 261 198 305 18 21 22 24 32 39
195 186 165 165 152 177 190 172 188 142 204 220 164 128 154 171 138 136 144 149 155 144 130 101 128 86 266 338 342 328 226 187 186 194 172 198 186 305 291 20 22 25 35 36 41
Wind_Speed_850mb
9 9 10 12 14 18 21 23 24 25 26 27 26 19 12 9 28 19 28 31 33 31 28 17 10 13 15 18 16 7 8 5 5 6 10 29 18 20 34 19 35 14 28 56 53
9 8 10 11 13 17 19 23 24 24 25 26 24 19 13 7 12 41 33 23 24 27 23 22 18 14 14 11 13 13 8 3 3 3 4 26 17 30 22 47 17 60 52 51 49
9 8 9 11 13 15 19 22 24 23 24 23 21 16 11 9 9 31 31 26 25 28 24 26 15 16 16 15 16 8 7 1 4 8 19 7 16 23 23 7 36 49 64 59 51
9 7 7 10 13 16 18 20 23 24 23 20 15 15 18 6 6 28 28 29 29 32 19 26 13 10 12 10 11 10 7 8 7 15 23 11 12 30 6 11 33 48 56 56 47
10 8 7 10 13 15 16 19 22 23 21 16 10 10 9 19 21 24 26 28 27 24 33 19 37 13 10 9 9 10 8 9 13 17 17 25 32 12 16 23 55 67 67 62 52
12 9 8 11 12 13 15 17 19 18 18 19 19 15 9 17 26 25 23 24 31 34 36 37 23 24 20 11 10 6 9 8 19 26 11 29 23 5 4 54 75 70 66 63 58
12 9 8 10 9 11 13 16 14 11 15 21 16 23 41 24 26 21 20 29 33 32 36 42 41 20 9 6 13 7 5 9 20 33 15 49 9 7 29 65 67 67 67 61 57
13 11 10 8 7 8 10 11 10 9 4 3 11 14 16 22 21 11 17 24 24 28 26 24 18 29 17 6 11 12 10 12 9 30 21 19 12 18 54 52 57 69 63 64 61
15 12 11 8 4 4 6 7 6 12 8 7 7 10 9 12 21 17 20 17 14 18 25 18 20 23 20 8 8 17 4 7 17 11 13 11 13 34 48 50 55 57 65 70 73
16 13 11 8 5 2 6 16 15 10 6 8 13 13 11 13 32 18 9 17 15 11 11 20 19 10 10 15 3 5 7 6 8 13 18 8 13 30 43 39 52 57 62 72 70
18 15 12 9 6 4 7 8 3 8 24 17 18 19 9 5 26 20 10 13 14 23 10 18 21 14 8 7 3 1 3 8 7 7 19 8 14 22 45 36 47 57 59 69 78
20 17 14 10 5 5 7 8 7 19 23 19 23 25 19 10 5 26 15 9 20 10 4 13 11 3 4 5 3 1 4 9 11 10 8 11 28 11 21 28 47 56 56 65 73
22 19 16 12 8 4 8 9 21 21 11 5 12 13 9 16 14 28 14 11 13 13 14 14 2 2 7 9 9 3 5 5 11 18 1 13 11 8 23 28 50 62 65 65 68
22 20 17 14 9 11 7 17 25 9 9 8 3 6 7 4 8 25 12 4 11 9 8 12 4 5 6 9 5 3 6 9 13 11 4 9 8 9 34 43 53 63 69 71 73
24 22 19 19 7 16 10 20 18 5 6 3 3 4 13 8 3 19 23 11 8 8 7 3 3 7 7 3 4 9 1 9 4 1 6 10 4 13 34 45 47 66 68 70 71
26 24 21 20 13 13 15 23 16 12 11 3 4 4 8 12 7 7 9 15 9 10 11 6 1 2 2 5 5 8 3 5 4 2 5 5 6 10 27 37 42 62 69 68 68
28 26 23 22 16 18 23 24 10 8 9 9 5 5 9 6 9 11 8 10 5 10 7 11 3 1 2 3 2 11 7 5 9 8 6 4 5 9 32 35 37 50 71 71 72
32 28 26 23 20 25 30 9 8 4 12 3 3 10 8 4 5 8 4 5 4 9 8 9 9 3 7 3 2 5 5 7 8 3 9 9 4 2 20 41 42 47 65 71 72
35 31 28 26 25 30 17 6 15 13 13 17 6 9 4 2 6 7 4 7 5 5 11 9 6 4 1 2 0 2 8 2 2 3 4 7 8 12 30 30 55 60 68 78 79
44 32 29 30 29 28 6 10 8 7 11 5 8 3 10 6 4 6 2 5 6 3 4 8 7 3 0 4 7 8 4 4 3 6 7 6 2 9 35 40 37 54 65 74 77
42 22 26 33 29 18 7 13 7 13 11 8 7 9 8 12 11 5 7 5 4 4 6 7 6 6 5 4 5 4 4 3 1 2 2 6 5 2 15 22 28 46 62 67 67
47 8 37 42 11 0 6 12 12 12 10 2 6 8 10 10 8 7 11 10 10 14 9 5 8 4 4 2 2 1 7 4 5 6 5 1 7 6 12 27 34 46 55 57 53
42 14 41 53 8 5 2 1 7 10 10 9 4 2 4 11 9 7 7 2 16 7 11 9 2 5 11 3 4 3 4 4 1 3 6 4 7 13 40 43 50 47 51 51 53
31 8 16 36 10 14 10 6 8 9 10 8 8 9 9 7 6 9 5 3 8 5 11 7 3 7 10 8 6 5 5 6 6 5 4 7 12 15 25 26 47 49 44 44 50
28 12 24 14 21 11 8 17 13 12 7 15 3 7 13 9 6 7 6 4 6 14 7 6 8 0 2 2 2 6 9 7 11 8 8 5 6 6 10 16 31 33 35 42 47
36 20 19 16 37 27 17 18 22 10 16 11 7 15 11 14 14 19 15 8 9 6 5 4 5 6 8 4 5 7 13 12 10 6 8 8 7 6 2 24 34 33 33 37 39
52 48 42 31 20 24 15 16 21 28 10 6 23 12 10 12 16 30 18 22 23 13 6 7 9 6 7 8 6 11 15 16 7 5 8 7 4 5 3 13 22 24 26 28 31
Wind_Direction_850mb
317 332 343 5 1 355 1 3 7 4 0 1 1 3 12 38 39 47 37 14 6 12 14 13 28 75 82 68 56 58 63 71 37 40 303 343 360 346 339 324 337 27 357 333 341
292 314 333 353 356 358 355 360 3 2 358 360 4 7 22 77 62 45 36 29 22 16 23 35 51 65 66 46 36 57 80 106 114 62 1 317 343 333 343 332 354 336 327 342 341
279 300 324 337 345 353 356 358 358 357 355 357 4 19 30 59 79 16 21 30 30 23 23 28 57 73 67 48 26 35 103 341 124 17 339 301 332 331 331 352 5 340 340 348 345
264 283 311 324 336 350 355 355 353 354 353 355 359 47 58 49 78 4 18 28 33 29 21 35 43 58 61 51 29 92 58 34 358 357 356 339 319 326 287 303 339 336 331 330 333
252 268 298 320 329 342 350 355 350 357 360 10 34 76 55 63 34 28 30 34 43 42 44 49 49 53 69 58 49 51 352 354 10 4 32 354 318 263 298 353 337 331 322 321 318
244 260 296 312 324 335 347 352 350 14 37 58 68 75 59 73 37 39 42 42 53 52 53 58 59 71 88 56 60 347 313 324 30 11 46 1 320 18 352 337 331 331 324 318 312
239 254 277 295 318 336 345 349 2 42 107 81 75 79 66 62 40 41 60 58 51 56 69 71 61 73 55 59 21 351 33 8 27 358 27 344 27 45 343 339 341 342 334 324 315
233 249 263 283 314 334 346 357 22 53 145 174 64 66 81 60 39 55 57 61 60 58 67 68 61 57 59 69 23 33 50 4 350 4 5 14 288 302 343 341 338 341 338 332 325
229 243 253 264 290 336 4 21 72 75 74 90 84 96 86 49 35 43 52 59 70 57 58 74 68 61 23 57 39 21 345 13 319 46 357 47 292 304 345 345 345 339 333 332 324
226 234 242 254 259 255 135 81 90 86 96 92 84 90 74 38 31 36 70 51 57 104 81 51 60 74 18 29 72 318 343 330 257 313 357 318 291 304 334 344 350 343 340 332 330
220 226 231 245 252 227 192 208 194 62 68 65 89 89 59 4 32 37 82 77 57 56 63 34 63 49 335 339 339 210 259 286 252 295 347 328 303 303 324 332 350 346 342 334 330
217 221 221 228 240 229 192 206 166 138 90 71 87 85 59 28 317 36 62 88 59 65 354 44 72 278 241 59 64 10 331 343 294 285 333 331 306 288 323 333 354 345 346 336 329
218 217 218 217 221 231 204 178 148 134 90 60 67 69 59 44 36 10 34 86 86 53 32 98 162 323 101 58 35 39 67 25 317 311 336 319 297 325 351 358 351 351 347 344 339
218 216 214 210 208 202 176 151 155 140 75 291 2 52 30 70 32 26 27 68 47 123 89 82 11 51 80 85 64 27 138 328 311 352 333 30 294 308 358 352 1 350 351 344 344
216 215 209 202 192 186 177 162 163 101 10 298 39 82 61 81 14 10 25 52 89 109 97 234 68 55 68 112 129 218 350 292 284 30 54 347 49 282 356 354 351 348 348 344 350
215 211 207 207 201 181 163 157 147 47 260 274 298 82 69 34 22 346 46 66 106 84 36 92 90 145 266 277 196 293 68 88 75 341 36 299 108 302 7 347 345 340 341 346 353
211 209 203 199 198 172 155 149 50 136 349 273 173 101 86 25 3 22 36 28 112 86 7 353 6 288 309 19 38 14 58 356 1 11 231 340 71 244 2 351 342 337 337 347 355
206 203 201 199 181 171 159 57 104 219 213 224 122 88 109 73 350 358 70 45 25 75 99 129 320 31 353 73 112 1 55 128 210 324 295 340 355 273 17 346 350 352 349 351 357
198 197 198 191 179 173 176 82 203 192 163 156 58 88 348 113 159 54 23 164 202 163 125 118 334 321 139 182 329 10 62 35 259 20 298 287 309 312 342 353 356 0 357 353 1
190 189 194 188 180 177 93 238 182 154 125 132 137 147 154 185 111 73 247 250 156 198 159 169 78 271 24 122 24 75 158 96 27 28 323 294 205 305 338 343 348 354 352 354 3
185 173 190 181 173 175 175 220 204 177 155 169 157 133 160 152 158 189 203 262 173 139 94 136 89 261 72 21 168 37 83 89 106 224 221 307 263 36 317 334 338 343 357 2 10
176 151 172 172 143 170 174 189 162 150 191 195 116 108 141 147 135 169 195 215 173 155 141 170 132 145 124 161 280 227 157 142 146 241 246 184 275 83 11 356 354 350 8 13 27
163 124 171 177 161 231 262 288 184 136 185 171 134 129 127 142 117 152 143 176 156 152 163 173 348 52 356 71 43 187 170 169 158 114 239 171 261 15 9 5 4 5 17 17 29
155 142 163 202 215 148 152 172 165 194 163 153 125 112 117 102 39 153 127 166 154 110 106 104 101 179 183 156 134 206 221 198 163 194 210 235 310 352 352 353 353 8 22 26 35
163 188 173 182 200 173 171 157 142 169 209 174 88 201 150 120 105 143 126 125 71 140 76 103 146 335 309 99 169 234 235 211 196 213 185 206 282 329 332 337 356 7 20 32 37
169 149 151 159 162 171 182 195 169 151 154 204 179 172 151 150 175 183 142 175 193 157 113 54 147 81 336 349 19 271 246 228 235 210 255 251 261 198 305 18 21 22 24 32 39
195 186 165 165 152 177 190 172 188 142 204 220 164 128 154 171 138 136 144 149 155 144 130 101 128 86 266 338 342 328 226 187 186 194 172 198 186 305 291 20 22 25 35 36 41